Location: Beuzeville
(49.3525°N, 1.3654°W)
Time: 01:38:02
(UTC+00:00)

Daily predictions for brighter satellites

Satellite Brightness Start Highest point End
(mag) Time Altitude Azimuth Time Altitude Azimuth Time Altitude Azimuth
CZ-4C R/B 4.3 00:30:27 24° NNW 00:31:15 24° N 00:36:44 10° NE
USA 234 4.4 00:39:05 10° ENE 00:43:28 37° NE 00:43:28 37° NE
Cosmos 2369 Rocket 4.5 00:52:18 19° NNW 00:52:18 19° NNW 00:54:57 10° N
Cosmos 2263 Rocket 4.4 00:58:20 10° N 01:02:37 21° NE 01:03:48 20° ENE
Lacrosse 5 4.5 01:22:28 15° ENE 01:22:28 15° ENE 01:23:19 10° ENE
Resurs 1-4 Rocket 4.0 01:24:27 10° NNE 01:26:57 27° NE 01:26:57 27° NE
SL-16 R/B 3.7 01:35:43 35° NNW 01:35:43 35° NNW 01:39:06 10° NNW
CZ-2D R/B 3.9 01:31:00 10° NNE 01:33:36 29° NE 01:33:36 29° NE
ATLAS 5 CENTAUR R/B 4.0 01:57:35 21° N 01:57:35 21° N 01:59:56 10° NNE
ATLAS 2AS CENTAUR R/B 4.1 01:55:18 10° NW 02:02:26 38° NNE 02:09:04 10° E
Cosmos 2369 4.3 02:20:39 53° NNE 02:20:39 53° NNE 02:24:58 10° NNE
SJ 16-02 3.9 02:15:09 10° N 02:16:14 17° N 02:16:14 17° N
ADEOS II 3.0 02:14:21 10° NNE 02:18:20 46° NE 02:18:20 46° NE
IDEFIX/ARIANE 42P 4.3 02:16:58 10° NE 02:21:19 25° E 02:22:24 24° ESE
CZ-4C R/B 4.4 02:16:23 10° NW 02:21:55 28° NNE 02:28:17 10° ENE
Nadezhda 3 Rocket 4.1 02:27:56 71° NNE 02:27:56 71° NNE 02:33:24 10° N
USA 234 3.7 02:21:20 10° E 02:27:43 58° NNE 02:30:48 31° NW
Cosmos 1238 Rocket 4.2 02:26:09 10° N 02:32:41 65° ENE 02:33:16 61° ESE
CZ-4B R/B 4.1 02:30:38 10° NNE 02:34:35 54° NNE 02:34:35 54° NNE
Cosmos 1697 Rocket 3.3 02:40:57 48° NNW 02:40:57 48° NNW 02:45:24 10° NNE
ATLAS CENTAUR R/B 4.4 02:27:07 10° WNW 02:42:32 53° N 02:48:13 10° ENE
Cosmos 1980 Rocket 2.3 02:47:20 72° NNE 02:47:20 72° NNE 02:52:26 10° NNE
Cosmos 2263 Rocket 3.0 02:41:41 10° NNW 02:45:20 42° NNW 02:45:20 42° NNW
ASTEX 1 3.9 02:46:20 10° NNE 02:51:16 55° E 02:51:25 55° E
SL-08 R/B 4.5 02:57:48 33° NNW 02:57:48 33° NNW 03:00:20 10° NNW
Cosmos 1898 Rocket 4.0 02:50:40 10° NNW 02:55:52 58° ENE 03:01:05 10° SE
Cosmos 2322 Rocket 3.6 02:54:21 25° SE 02:56:28 32° ESE 03:01:27 10° NE
Lacrosse 5 2.4 03:01:39 50° NNW 03:01:39 50° NNW 03:06:23 10° NE
Cosmos 921 Rocket 3.7 03:05:07 49° NE 03:05:07 49° NE 03:08:21 10° NNE
IRS-1C 4.0 02:59:43 10° NNE 03:05:06 88° ESE 03:05:14 85° SSE
Cosmos 1812 3.9 03:08:14 42° ENE 03:08:14 42° ENE 03:11:19 10° NNE
USA 307 3.8 03:08:53 46° NNE 03:08:53 46° NNE 03:12:23 10° ENE
SL-16 R/B 3.0 03:06:39 36° SSE 03:08:21 47° ESE 03:13:46 10° NE
Resurs 1-4 Rocket 3.5 03:04:45 10° N 03:08:01 26° NW 03:08:01 26° NW
ERBS 4.4 03:12:22 27° ENE 03:12:22 27° ENE 03:14:03 10° ENE
USA 308 3.7 03:12:08 47° NNE 03:12:08 47° NNE 03:15:47 10° ENE
Cosmos 1339 Rocket 4.5 03:12:47 44° S 03:14:55 81° E 03:21:07 10° N
Cosmos 1937 Rocket 3.9 03:10:17 10° NNW 03:15:25 61° ENE 03:20:30 10° SE
CZ-2D R/B 3.5 03:11:38 10° N 03:14:55 24° NW 03:14:55 24° NW
CZ-4C R/B 4.2 03:20:03 39° E 03:20:31 42° ENE 03:23:52 10° N
Cosmos 1536 4.2 03:19:39 10° N 03:23:31 40° ENE 03:27:21 10° SE
Cosmos 1763 Rocket 3.9 03:25:16 38° S 03:27:08 61° ESE 03:32:21 10° NNE
CZ-2D R/B 3.5 03:22:55 10° NNE 03:27:12 81° ESE 03:27:24 78° SE
IRIDIUM 103 4.4 03:24:21 10° N 03:29:36 75° E 03:33:37 17° S
ARIANE 5 R/B 2.3 03:24:43 10° NNE 03:29:48 75° WNW 03:30:25 65° SW
NOSS 3-4 (A) 3.8 03:23:30 10° NW 03:30:26 85° NE 03:38:09 10° SE
NOSS 3-4 (C) 3.8 03:23:36 10° NW 03:30:32 85° NE 03:38:15 10° SE
USA 267 3.4 03:27:42 10° ENE 03:34:13 67° SE 03:36:57 37° SSW
Cosmos 1707 Rocket 4.3 03:32:27 26° SSE 03:34:35 50° E 03:38:49 10° NNE
ADEOS Rocket 3.9 03:32:46 10° SE 03:38:58 50° ENE 03:44:38 10° N
Meteor 1-5 Rocket 4.0 03:34:45 10° NNW 03:40:02 63° W 03:42:00 38° SSW
NOSS 3-3 (A) 4.0 03:38:58 46° WSW 03:40:52 72° NW 03:47:43 10° NE
NOSS 3-3 (C) 4.0 03:39:06 46° WSW 03:40:58 72° NW 03:47:48 10° NE
CZ-4B R/B 4.2 03:39:17 10° ESE 03:41:44 20° ENE 03:44:14 10° NNE
ATLAS 5 CENTAUR R/B 4.1 03:39:07 11° NW 03:42:02 17° N 03:45:26 10° NE
Cosmos 540 Rocket 4.5 03:38:54 15° S 03:42:50 44° ESE 03:47:45 10° NE
ERS-2 3.5 03:39:27 10° SE 03:42:54 40° ENE 03:46:22 10° N
Cosmos 1934 Rocket 4.4 03:37:49 10° NNW 03:43:14 38° W 03:43:14 38° W
IRS-P3 4.5 03:39:07 10° N 03:44:10 44° WNW 03:44:47 43° W
MSX 3.8 03:38:54 10° NNE 03:44:44 83° ESE 03:48:33 23° SSW
Cosmos 1733 Rocket 3.8 03:42:30 10° N 03:46:47 53° ENE 03:51:00 10° SSE
Cosmos 44 Rocket 4.1 03:44:48 25° S 03:47:06 44° ESE 03:51:44 10° NE
Cosmos 44 3.9 03:46:58 35° NW 03:47:27 36° NW 03:51:52 10° NNE
IRIDIUM 106 4.2 03:42:41 10° N 03:47:56 78° W 03:51:57 17° S
Cosmos 990 Rocket 4.1 03:44:34 10° NNW 03:49:35 50° WSW 03:54:36 10° S
ATLAS 2AS CENTAUR R/B 2.7 03:46:38 10° NW 03:54:15 86° SW 04:01:13 10° SE
Meteor 2-6 Rocket 4.3 03:52:21 37° SW 03:54:33 60° WNW 04:00:25 10° N
Meteor 1-10 Rocket 4.2 03:51:45 30° SSW 03:54:46 72° WNW 04:00:43 10° N
Cosmos 2173 Rocket 4.3 03:48:36 10° N 03:54:58 72° E 04:01:20 10° SSE
BREEZE M DEB (TANK) 4.4 03:40:20 10° WNW 03:56:21 46° SW 04:01:09 10° SSE
Landsat 5 3.5 03:51:54 10° S 03:56:24 78° WSW 04:00:51 10° NNW
Cosmos 1869 Rocket 4.2 03:53:38 10° NNW 03:56:48 36° WNW 03:56:48 36° WNW
CZ-2C R/B 2.6 03:54:11 10° N 03:58:00 78° WNW 03:58:54 50° SSW
SL-4 R/B 2.4 03:57:30 45° SW 03:58:48 69° SSE 04:03:34 10° ENE
ADEOS II 3.2 03:54:39 10° N 03:58:54 25° WNW 03:59:15 25° WNW
IDEFIX/ARIANE 42P 2.7 03:56:04 10° N 04:01:12 53° WNW 04:03:12 34° SW
PSLV R/B 4.0 03:57:24 10° NNE 04:01:34 57° E 04:05:41 10° S
Cosmos 468 Rocket 4.0 03:59:52 36° SW 04:02:00 66° WNW 04:07:15 10° NNE
BREEZE-M DEB (TANK) 3.8 03:59:36 25° SW 04:02:46 40° S 04:05:59 10° E
Cosmos 1570 Rocket 4.4 03:58:30 14° S 04:03:02 64° ESE 04:08:21 10° NNE
USA 276 2.2 04:03:18 61° S 04:03:18 61° S 04:06:17 10° ESE
Cosmos 967 Rocket 4.5 04:03:42 24° SW 04:07:48 88° SE 04:14:15 10° NE
BREEZE-M DEB (TANK) 2.9 04:08:00 45° SW 04:08:56 75° SSE 04:16:13 10° ENE
Cosmos 1862 Rocket 4.1 04:05:09 10° S 04:09:25 58° E 04:13:42 10° NNE
USA 234 3.2 04:04:09 10° SE 04:10:39 70° SW 04:17:13 10° WNW
Cosmos 2228 Rocket 4.0 04:10:44 29° WNW 04:10:48 29° WNW 04:14:41 10° N
CZ-4C R/B 3.4 04:04:57 10° NW 04:11:49 60° NE 04:19:50 10° ESE
COSMOS 2441 4.4 04:08:25 10° N 04:13:18 63° WNW 04:16:26 22° SSW
H-2A R/B 2.2 04:10:24 10° S 04:14:43 53° W 04:19:09 10° NNW
USA 305 3.7 04:12:36 23° WNW 04:14:49 44° N 04:18:55 10° ENE
ALOS 4.1 04:11:05 10° NNE 04:15:17 32° E 04:19:29 10° SSE
PKM 3.9 04:14:43 30° WNW 04:16:14 54° SW 04:19:48 10° SE
USA 306 3.7 04:16:52 22° WNW 04:19:17 44° N 04:23:22 10° ENE
COSMOS 2455 4.4 04:14:18 10° NNW 04:19:51 36° NE 04:25:22 10° ESE
Cosmos 2360 Rocket 2.4 04:15:02 11° SSW 04:20:28 74° ESE 04:26:09 10° NNE
Meteor 1-4 Rocket 3.4 04:21:09 30° WNW 04:21:09 30° WNW 04:24:19 10° N
CZ-2C R/B 2.5 04:18:03 10° NNE 04:23:14 88° ESE 04:28:27 10° SSW
Cosmos 372 Rocket 3.8 04:21:24 10° NNW 04:26:33 72° WSW 04:31:37 10° SSE
Cosmos 2016 Rocket 4.0 04:20:39 10° N 04:26:48 83° E 04:32:54 10° S
Cosmos 1980 Rocket 3.7 04:29:06 16° WNW 04:31:35 21° NW 04:35:52 10° N
Cosmos 1000 Rocket 4.4 04:26:08 10° SSW 04:32:19 81° W 04:38:31 10° N
Cosmos 1484 Rocket 4.0 04:28:48 10° NNE 04:32:40 45° E 04:36:31 10° S
Cosmos 2061 Rocket 4.1 04:27:09 10° N 04:33:39 90° WSW 04:40:05 10° S
Cosmos 1666 3.7 04:30:46 10° NW 04:33:52 24° W 04:33:52 24° W
SAR-Lupe-1 4.5 04:31:21 10° SSE 04:34:53 65° ENE 04:38:27 10° N
Cosmos 1844 Rocket 2.6 04:29:53 10° NNW 04:35:28 64° WSW 04:41:03 10° SSE
Cosmos 2278 Rocket 3.7 04:34:56 10° NNW 04:40:14 38° NE 04:45:29 10° ESE
Cosmos 2322 Rocket 2.5 04:36:12 18° SW 04:40:18 50° NW 04:45:53 10° NNE
Meteor 1-11 Rocket 4.4 04:38:37 10° NNW 04:43:35 31° W 04:48:28 10° SSW
Cosmos 1812 4.4 04:43:21 16° WNW 04:43:40 17° WNW 04:46:12 10° NNW
Cosmos 1844 3.6 04:38:44 10° NNW 04:44:16 66° WSW 04:49:46 10° SSE
Lacrosse 5 3.1 04:40:50 11° WNW 04:45:14 34° N 04:49:53 10° ENE
Meteor 1-31 Rocket 3.8 04:41:51 10° NNE 04:45:36 49° E 04:49:21 10° S
Okean 1 3.5 04:41:49 10° S 04:45:50 76° E 04:49:54 10° NNE
ERBS 3.7 04:45:17 16° WNW 04:47:16 27° NNW 04:50:13 10° NE
Cosmos 1864 Rocket 4.4 04:41:57 10° N 04:48:15 82° W 04:54:24 10° S
COSMO-SKYMED 1 3.6 04:44:26 10° SE 04:48:37 51° ENE 04:52:51 10° N
USA 307 3.7 04:45:04 12° WNW 04:48:47 47° N 04:52:54 10° E
Cosmos 1725 Rocket 3.9 04:43:17 10° N 04:49:29 82° W 04:55:40 10° S
Meteor 2-9 Rocket 4.4 04:44:42 10° N 04:50:14 75° ENE 04:55:34 10° SSE
Cosmos 2298 Rocket 4.0 04:46:05 10° NNW 04:51:22 66° WSW 04:56:37 10° S
USA 308 3.7 04:48:19 12° WNW 04:52:11 47° N 04:56:19 10° E
Cosmos 1437 Rocket 2.6 04:48:46 10° SSW 04:52:35 77° WNW 04:56:29 10° N
SL-16 R/B 2.9 04:48:34 16° WSW 04:52:37 36° NW 04:57:51 10° NNE
deb Chang Zheng 4 3.6 04:48:22 10° NNE 04:52:41 86° ESE 04:56:57 10° SSW
Meteor 1-27 Rocket 4.3 04:48:14 10° SW 04:53:49 41° WNW 04:59:22 10° N
FALCON 9 DEB 3.4 04:53:27 17° W 04:55:52 57° NNW 04:59:17 10° ENE
Cosmos 2100 Rocket 4.4 04:52:20 10° NNW 04:58:13 41° W 05:04:05 10° SSW
Cosmos 1536 4.1 04:56:39 10° NW 04:59:40 20° W 05:02:41 10° SW
SJ-6F 4.4 04:56:15 10° N 05:00:20 66° WNW 05:04:23 10° SSW
Cosmos 1782 Rocket 4.0 04:56:12 10° N 05:00:42 69° ENE 05:05:07 10° SSE
Cosmos 2237 4.4 04:56:15 10° SW 05:01:51 56° NW 05:07:29 10° NNE
Cosmos 1908 Rocket 3.5 04:57:29 10° NNW 05:01:57 68° W 05:06:23 10° S
Cosmos 1459 Rocket 4.3 04:56:36 10° NNW 05:02:12 39° W 05:07:44 10° SSW
Cosmos 841 Rocket 3.9 04:59:04 10° SW 05:04:03 44° WNW 05:09:08 10° NNE
Cosmos 1703 Rocket 3.7 05:01:23 10° S 05:05:42 80° E 05:10:06 10° NNE
Okean 1-7 3.2 05:02:05 10° S 05:06:19 74° E 05:10:34 10° NNE
ARIANE 5 R/B 4.3 05:05:34 10° NNW 05:08:04 14° NW 05:10:33 10° W
Cosmos 2219 Rocket 2.6 05:02:45 10° SSW 05:08:22 67° ESE 05:14:02 10° NNE
Cosmos 1802 Rocket 4.3 05:02:47 10° NNW 05:08:37 44° W 05:14:29 10° SSW
Cosmos 2208 Rocket 4.3 05:03:56 10° SW 05:08:58 49° WNW 05:14:02 10° NNE
CZ-4B R/B 3.6 05:05:42 10° NNE 05:09:15 50° E 05:12:44 10° S
Cosmos 1814 Rocket 4.3 05:05:16 10° SW 05:10:20 49° WNW 05:15:29 10° NNE
Cosmos 1125 Rocket 3.5 05:05:17 10° NNW 05:10:35 72° WSW 05:15:48 10° SSE
Intercosmos 25 3.2 05:07:41 10° SSW 05:11:06 46° WNW 05:14:12 10° N
CZ-4B R/B 4.1 05:09:28 10° NNE 05:13:52 83° WNW 05:18:20 10° SSW
CZ-4B R/B 2.2 05:11:01 10° SSW 05:13:52 28° W 05:16:46 10° NW
Meteor 2-4 Rocket 4.3 05:10:18 10° S 05:15:38 61° E 05:20:56 10° NNE
ERS-2 3.6 05:14:04 10° SW 05:16:37 18° W 05:19:12 10° NW
USA 267 3.6 05:10:49 10° ENE 05:17:13 59° NNW 05:23:37 10° W
Cosmos 2150 Rocket 4.4 05:13:41 10° NW 05:18:51 44° WSW 05:23:55 10° S
Cosmos 2123 Rocket 4.1 05:14:56 10° SSW 05:21:06 59° WNW 05:27:22 10° N
Cosmos 1544 3.8 05:19:48 10° NNW 05:23:02 31° W 05:26:13 10° SSW
Cosmos 1733 Rocket 4.5 05:21:19 10° NW 05:24:09 17° W 05:26:58 10° SW
ATLAS CENTAUR R/B 2.5 05:16:12 10° NW 05:24:22 63° SW 05:27:42 10° SE
Cosmos 540 Rocket 4.3 05:19:58 10° WSW 05:24:36 32° NW 05:29:15 10° N
ADEOS Rocket 3.7 05:18:55 10° SSW 05:24:42 33° W 05:30:02 10° NNW
Cosmos 1743 3.8 05:21:58 10° NW 05:25:01 23° W 05:28:02 10° SW
Cosmos 2237 Rocket 4.1 05:23:11 10° S 05:28:14 35° ESE 05:33:18 10° NE
ATLAS 5 CENTAUR R/B 4.1 05:24:10 10° NNW 05:28:26 25° NNE 05:33:15 10° ENE
Cosmos 44 Rocket 4.0 05:24:18 10° WSW 05:28:44 37° NW 05:33:19 10° NNE
Meteor PRIRODA 3.8 05:25:49 10° NNE 05:29:30 77° ESE 05:33:07 10° S
CZ-3B R/B 4.2 05:25:08 10° WNW 05:29:48 63° NNE 05:51:49 10° E
RESURS DK-1 2.8 05:26:30 10° NNW 05:30:41 70° ENE 05:34:49 10° SE
COSMOS 2428 2.9 05:25:37 10° SSW 05:31:21 85° ESE 05:37:08 10° NNE
